User: anonymous   Login
Location: eljas
(40.1958°N, 6.8661°W)
Time: 06:37:01
(UTC+02:00)
Language:

Okean O Rocket - Orbit

View from above orbital plane
View from above orbital plane
View from above satellite
View from above satellite

Ground track
Ground track

The orbit data is extracted from the following two-line orbital elements,

1 25861U 99039B   15108.12994981  .00000662  00000-0  98563-4 0  9999
2 25861 097.9951 068.7838 0017073 109.8164 018.4946 14.78088071848906
Epoch (UTC): 18 April 2015 03:07:07
Eccentricity: 0.0017073
inclination: 97.9951°
perigee height: 623 km
apogee height: 647 km
right ascension of ascending node: 68.7838°
argument of perigee: 109.8164°
revolutions per day: 14.78088071
mean anomaly at epoch: 18.4946°
orbit number at epoch: 84890

The dashed part of the orbit path shows where the satellite is in the earth's shadow,  

DLR